| time (UTC) | temp F | wind direction | speed MPH | gust MPH | rain 1hr in | rain 24hr in | rain mn in | humidity % | barometer mb |
| 20260507060547 | 50 | 282 | 5.0 | 6.0 | 0.00 | 0.00 | 0.00 | 76 | 1015.6 |
| 20260507060046 | 50 | 280 | 3.0 | 4.0 | 0.00 | 0.00 | 0.00 | 77 | 1015.2 |
| 20260507055547 | 49 | 292 | 3.0 | 5.0 | 0.00 | 0.00 | 0.00 | 77 | 1015.6 |
| 20260507055046 | 49 | 298 | 3.0 | 4.0 | 0.00 | 0.00 | 0.00 | 78 | 1015.6 |
| 20260507054547 | 49 | 305 | 3.0 | 8.0 | 0.00 | 0.00 | 0.00 | 78 | 1015.2 |
| 20260507054046 | 49 | 303 | 3.0 | 5.0 | 0.00 | 0.00 | 0.00 | 78 | 1015.2 |
| 20260507053546 | 49 | 300 | 2.0 | 7.0 | 0.00 | 0.00 | 0.00 | 78 | 1015.2 |
| 20260507053046 | 49 | 307 | 5.0 | 6.0 | 0.00 | 0.00 | 0.00 | 78 | 1015.2 |
| 20260507052546 | 48 | 295 | 3.0 | 3.0 | 0.00 | 0.00 | 0.00 | 79 | 1015.2 |
| 20260507052047 | 48 | 323 | 5.0 | 5.0 | 0.00 | 0.00 | 0.00 | 80 | 1015.2 |
| 20260507051546 | 48 | 11 | 1.0 | 5.0 | 0.00 | 0.00 | 0.00 | 80 | 1015.2 |
| 20260507051047 | 48 | 312 | 3.0 | 3.0 | 0.00 | 0.00 | 0.00 | 81 | 1015.2 |
| 20260507050547 | 48 | 302 | 2.0 | 5.0 | 0.00 | 0.00 | 0.00 | 82 | 1014.9 |
| 20260507050046 | 48 | 278 | 3.0 | 7.0 | 0.00 | 0.00 | 0.00 | 82 | 1015.2 |
| 20260507045547 | 48 | 288 | 3.0 | 4.0 | 0.00 | 0.00 | 0.00 | 82 | 1015.2 |
| 20260507045046 | 48 | 288 | 2.0 | 3.0 | 0.00 | 0.00 | 0.00 | 82 | 1014.9 |
| 20260507044546 | 48 | 277 | 3.0 | 4.0 | 0.00 | 0.00 | 0.00 | 81 | 1014.9 |
| 20260507044046 | 48 | 325 | 1.0 | 4.0 | 0.00 | 0.00 | 0.00 | 82 | 1014.9 |
| 20260507043547 | 48 | 283 | 3.0 | 4.0 | 0.00 | 0.00 | 0.00 | 82 | 1014.9 |
| 20260507043047 | 48 | 300 | 2.0 | 3.0 | 0.00 | 0.00 | 0.00 | 83 | 1014.9 |
| 20260507042547 | 48 | 287 | 3.0 | 4.0 | 0.00 | 0.00 | 0.00 | 83 | 1014.6 |
| 20260507042046 | 48 | 308 | 3.0 | 3.0 | 0.00 | 0.00 | 0.00 | 82 | 1014.6 |
| 20260507041547 | 48 | 287 | 2.0 | 4.0 | 0.00 | 0.00 | 0.00 | 82 | 1014.6 |
| 20260507041047 | 48 | 289 | 3.0 | 3.0 | 0.00 | 0.00 | 0.00 | 82 | 1014.2 |
| 20260507040547 | 48 | 298 | 2.0 | 4.0 | 0.00 | 0.00 | 0.00 | 82 | 1014.6 |
| 20260507040047 | 48 | 260 | 0.0 | 5.0 | 0.00 | 0.00 | 0.00 | 82 | 1014.2 |
| 20260507035546 | 48 | 311 | 2.0 | 3.0 | 0.00 | 0.00 | 0.00 | 82 | 1014.2 |
| 20260507035046 | 48 | 312 | 3.0 | 5.0 | 0.00 | 0.00 | 0.00 | 83 | 1014.2 |
| 20260507034546 | 48 | 318 | 2.0 | 3.0 | 0.00 | 0.00 | 0.00 | 84 | 1014.2 |
| 20260507034046 | 48 | 283 | 2.0 | 3.0 | 0.00 | 0.00 | 0.00 | 84 | 1014.2 |
| 20260507033546 | 48 | 293 | 1.0 | 3.0 | 0.00 | 0.00 | 0.00 | 84 | 1014.2 |
| 20260507033046 | 48 | 292 | 3.0 | 3.0 | 0.00 | 0.00 | 0.00 | 83 | 1014.2 |
| 20260507032547 | 48 | 289 | 3.0 | 3.0 | 0.00 | 0.00 | 0.00 | 83 | 1014.2 |
| 20260507032047 | 48 | 283 | 3.0 | 3.0 | 0.00 | 0.00 | 0.00 | 83 | 1014.2 |
| 20260507031546 | 48 | 288 | 3.0 | 4.0 | 0.00 | 0.00 | 0.00 | 83 | 1014.2 |
| 20260507031047 | 48 | 303 | 3.0 | 3.0 | 0.00 | 0.00 | 0.00 | 83 | 1014.2 |
| 20260507030546 | 48 | 287 | 2.0 | 3.0 | 0.00 | 0.00 | 0.00 | 83 | 1014.2 |
| 20260507030047 | 48 | 297 | 3.0 | 3.0 | 0.00 | 0.00 | 0.00 | 83 | 1013.9 |
| 20260507025547 | 48 | 297 | 2.0 | 3.0 | 0.00 | 0.00 | 0.00 | 82 | 1014.2 |
| 20260507025047 | 48 | 286 | 3.0 | 5.0 | 0.00 | 0.00 | 0.00 | 82 | 1014.2 |
| 20260507024546 | 48 | 290 | 2.0 | 3.0 | 0.00 | 0.00 | 0.00 | 82 | 1014.2 |
| 20260507024047 | 48 | 286 | 2.0 | 3.0 | 0.00 | 0.00 | 0.00 | 82 | 1014.2 |
| 20260507023546 | 48 | 293 | 2.0 | 3.0 | 0.00 | 0.00 | 0.00 | 82 | 1014.2 |
| 20260507023049 | 48 | 287 | 3.0 | 4.0 | 0.00 | 0.00 | 0.00 | 81 | 1014.2 |
| 20260507022546 | 48 | 289 | 3.0 | 4.0 | 0.00 | 0.00 | 0.00 | 81 | 1014.2 |
| 20260507022047 | 48 | 278 | 2.0 | 3.0 | 0.00 | 0.00 | 0.00 | 81 | 1013.9 |
| 20260507021547 | 49 | 285 | 2.0 | 3.0 | 0.00 | 0.00 | 0.00 | 82 | 1013.9 |
| 20260507021047 | 49 | 270 | 3.0 | 3.0 | 0.00 | 0.00 | 0.00 | 82 | 1013.9 |
| 20260507020546 | 49 | 302 | 3.0 | 5.0 | 0.00 | 0.00 | 0.00 | 81 | 1013.5 |
| 20260507020046 | 49 | 287 | 3.0 | 3.0 | 0.00 | 0.00 | 0.00 | 82 | 1013.5 |
| 20260507015547 | 49 | 300 | 2.0 | 3.0 | 0.00 | 0.00 | 0.00 | 81 | 1013.5 |
| 20260507015046 | 49 | 285 | 2.0 | 4.0 | 0.00 | 0.00 | 0.00 | 81 | 1013.5 |
| 20260507014546 | 49 | 296 | 2.0 | 4.0 | 0.00 | 0.00 | 0.00 | 81 | 1013.5 |
| 20260507014048 | 49 | 280 | 2.0 | 3.0 | 0.00 | 0.00 | 0.00 | 82 | 1013.9 |
| 20260507013546 | 49 | 290 | 3.0 | 3.0 | 0.00 | 0.00 | 0.00 | 82 | 1013.5 |
| 20260507013047 | 49 | 273 | 4.0 | 4.0 | 0.00 | 0.00 | 0.00 | 82 | 1013.5 |
| 20260507012547 | 49 | 295 | 3.0 | 3.0 | 0.00 | 0.00 | 0.00 | 82 | 1013.5 |
| 20260507012047 | 50 | 298 | 2.0 | 4.0 | 0.00 | 0.00 | 0.00 | 81 | 1013.5 |
| 20260507011546 | 50 | 294 | 2.0 | 4.0 | 0.00 | 0.00 | 0.00 | 81 | 1013.5 |
| 20260507011048 | 50 | 298 | 2.0 | 3.0 | 0.00 | 0.00 | 0.00 | 81 | 1013.5 |
| 20260507010547 | 50 | 290 | 3.0 | 3.0 | 0.00 | 0.00 | 0.00 | 81 | 1013.5 |
| 20260507010047 | 50 | 279 | 2.0 | 3.0 | 0.00 | 0.00 | 0.00 | 81 | 1013.5 |
| 20260507005546 | 50 | 285 | 2.0 | 3.0 | 0.00 | 0.00 | 0.00 | 81 | 1013.5 |
| 20260507005047 | 50 | 303 | 3.0 | 3.0 | 0.00 | 0.00 | 0.00 | 81 | 1013.5 |
| 20260507004546 | 50 | 294 | 2.0 | 3.0 | 0.00 | 0.00 | 0.00 | 81 | 1013.5 |
| 20260507004047 | 50 | 291 | 3.0 | 3.0 | 0.00 | 0.00 | 0.00 | 81 | 1013.2 |
| 20260507003547 | 50 | 293 | 2.0 | 3.0 | 0.00 | 0.00 | 0.00 | 80 | 1013.2 |
| 20260507003047 | 50 | 296 | 2.0 | 3.0 | 0.00 | 0.00 | 0.00 | 80 | 1013.2 |
| 20260507002547 | 50 | 291 | 2.0 | 3.0 | 0.00 | 0.00 | 0.00 | 80 | 1013.5 |
| 20260507002046 | 50 | 284 | 1.0 | 3.0 | 0.00 | 0.00 | 0.00 | 80 | 1013.2 |
| 20260507001546 | 50 | 284 | 3.0 | 4.0 | 0.00 | 0.00 | 0.00 | 79 | 1013.2 |
| 20260507001046 | 50 | 289 | 2.0 | 3.0 | 0.00 | 0.00 | 0.00 | 79 | 1013.2 |
| 20260507000547 | 50 | 305 | 2.0 | 4.0 | 0.00 | 0.00 | 0.00 | 79 | 1013.2 |
| 20260507000046 | 50 | 309 | 4.0 | 4.0 | 0.00 | 0.00 | 0.00 | 78 | 1013.2 |
| 20260506235546 | 50 | 285 | 3.0 | 3.0 | 0.00 | 0.00 | 0.00 | 78 | 1013.2 |
| 20260506235046 | 51 | 288 | 0.0 | 3.0 | 0.00 | 0.00 | 0.00 | 77 | 1013.2 |
| 20260506234548 | 51 | 286 | 2.0 | 4.0 | 0.00 | 0.00 | 0.00 | 77 | 1013.2 |
| 20260506234046 | 51 | 286 | 3.0 | 3.0 | 0.00 | 0.00 | 0.00 | 77 | 1013.2 |
| 20260506233546 | 51 | 295 | 3.0 | 3.0 | 0.00 | 0.00 | 0.00 | 77 | 1013.2 |
| 20260506233047 | 51 | 281 | 3.0 | 3.0 | 0.00 | 0.00 | 0.00 | 76 | 1013.2 |
| 20260506232547 | 51 | 304 | 2.0 | 3.0 | 0.00 | 0.00 | 0.00 | 77 | 1013.2 |
| 20260506232046 | 51 | 285 | 2.0 | 4.0 | 0.00 | 0.00 | 0.00 | 76 | 1012.9 |
| 20260506231546 | 50 | 330 | 2.0 | 3.0 | 0.00 | 0.00 | 0.00 | 77 | 1013.2 |
| 20260506231047 | 50 | 284 | 2.0 | 4.0 | 0.00 | 0.00 | 0.00 | 77 | 1012.9 |
| 20260506230546 | 50 | 266 | 3.0 | 3.0 | 0.00 | 0.00 | 0.00 | 78 | 1012.9 |
| 20260506230046 | 50 | 289 | 2.0 | 4.0 | 0.00 | 0.00 | 0.00 | 79 | 1013.2 |
| 20260506225546 | 50 | 286 | 2.0 | 3.0 | 0.00 | 0.00 | 0.00 | 80 | 1012.9 |
| 20260506225046 | 50 | 277 | 2.0 | 3.0 | 0.00 | 0.00 | 0.00 | 80 | 1012.9 |
| 20260506224546 | 50 | 298 | 3.0 | 3.0 | 0.00 | 0.00 | 0.00 | 80 | 1012.9 |
| 20260506224047 | 50 | 279 | 3.0 | 3.0 | 0.00 | 0.00 | 0.00 | 80 | 1012.9 |
| 20260506223546 | 50 | 298 | 2.0 | 4.0 | 0.00 | 0.00 | 0.00 | 80 | 1012.9 |
| 20260506223046 | 50 | 283 | 3.0 | 3.0 | 0.00 | 0.00 | 0.00 | 80 | 1012.9 |
| 20260506222547 | 50 | 286 | 3.0 | 3.0 | 0.00 | 0.00 | 0.00 | 79 | 1012.9 |
| 20260506222047 | 50 | 284 | 3.0 | 3.0 | 0.00 | 0.00 | 0.00 | 80 | 1012.9 |
| 20260506221546 | 50 | 278 | 3.0 | 3.0 | 0.00 | 0.00 | 0.00 | 80 | 1012.9 |
| 20260506221047 | 50 | 298 | 3.0 | 3.0 | 0.00 | 0.00 | 0.00 | 79 | 1012.9 |
| 20260506220546 | 50 | 297 | 3.0 | 3.0 | 0.00 | 0.00 | 0.00 | 79 | 1012.9 |
| 20260506220047 | 50 | 305 | 3.0 | 3.0 | 0.00 | 0.00 | 0.00 | 79 | 1012.9 |
| 20260506215547 | 50 | 290 | 2.0 | 3.0 | 0.00 | 0.00 | 0.06 | 79 | 1012.9 |
| 20260506215047 | 50 | 287 | 3.0 | 3.0 | 0.00 | 0.00 | 0.06 | 79 | 1012.5 |
| 20260506214546 | 50 | 292 | 3.0 | 3.0 | 0.00 | 0.00 | 0.06 | 79 | 1012.5 |
| 20260506214049 | 50 | 307 | 2.0 | 4.0 | 0.00 | 0.00 | 0.06 | 78 | 1012.9 |
| 20260506213546 | 50 | 287 | 3.0 | 3.0 | 0.00 | 0.00 | 0.06 | 78 | 1012.5 |
| 20260506213046 | 50 | 297 | 3.0 | 3.0 | 0.00 | 0.00 | 0.06 | 78 | 1012.5 |
| 20260506212546 | 50 | 297 | 2.0 | 3.0 | 0.00 | 0.00 | 0.06 | 78 | 1012.5 |
| 20260506212047 | 50 | 291 | 2.0 | 3.0 | 0.00 | 0.00 | 0.06 | 77 | 1012.5 |
| 20260506211547 | 51 | 292 | 2.0 | 3.0 | 0.00 | 0.00 | 0.06 | 77 | 1012.5 |
| 20260506211046 | 51 | 295 | 2.0 | 3.0 | 0.00 | 0.00 | 0.06 | 77 | 1012.5 |
| 20260506210548 | 51 | 287 | 3.0 | 3.0 | 0.00 | 0.00 | 0.06 | 77 | 1012.5 |
| 20260506210047 | 51 | 294 | 2.0 | 3.0 | 0.00 | 0.00 | 0.06 | 76 | 1012.5 |
| 20260506205547 | 51 | 292 | 3.0 | 3.0 | 0.00 | 0.00 | 0.06 | 76 | 1012.5 |
| 20260506205047 | 51 | 319 | 2.0 | 3.0 | 0.00 | 0.00 | 0.06 | 76 | 1012.9 |
| 20260506204546 | 51 | 312 | 3.0 | 3.0 | 0.00 | 0.00 | 0.06 | 76 | 1012.5 |
| 20260506204047 | 51 | 332 | 2.0 | 3.0 | 0.00 | 0.00 | 0.06 | 77 | 1012.5 |
| 20260506203546 | 51 | 301 | 2.0 | 3.0 | 0.00 | 0.00 | 0.06 | 78 | 1012.5 |
| 20260506203049 | 51 | 333 | 3.0 | 3.0 | 0.00 | 0.00 | 0.06 | 78 | 1012.2 |
| 20260506202547 | 51 | 324 | 1.0 | 3.0 | 0.00 | 0.00 | 0.06 | 78 | 1012.2 |
| 20260506202046 | 51 | 270 | 3.0 | 3.0 | 0.00 | 0.00 | 0.06 | 78 | 1012.2 |
| 20260506201546 | 51 | 294 | 3.0 | 3.0 | 0.00 | 0.00 | 0.06 | 78 | 1012.5 |
| 20260506201046 | 51 | 302 | 2.0 | 3.0 | 0.00 | 0.00 | 0.06 | 78 | 1012.5 |
| 20260506200548 | 51 | 305 | 3.0 | 3.0 | 0.00 | 0.00 | 0.06 | 78 | 1012.2 |
| 20260506200048 | 51 | 287 | 2.0 | 3.0 | 0.00 | 0.00 | 0.06 | 78 | 1012.2 |
| 20260506195547 | 51 | 300 | 2.0 | 3.0 | 0.00 | 0.00 | 0.06 | 78 | 1012.2 |
| 20260506195046 | 51 | 299 | 2.0 | 3.0 | 0.00 | 0.00 | 0.06 | 78 | 1012.2 |
| 20260506194546 | 51 | 307 | 3.0 | 3.0 | 0.00 | 0.00 | 0.06 | 77 | 1012.2 |
| 20260506194047 | 51 | 316 | 3.0 | 3.0 | 0.00 | 0.00 | 0.06 | 77 | 1011.9 |
| 20260506193547 | 51 | 344 | 3.0 | 4.0 | 0.00 | 0.00 | 0.06 | 77 | 1011.9 |
| 20260506193050 | 51 | 335 | 3.0 | 3.0 | 0.00 | 0.00 | 0.06 | 76 | 1011.9 |
| 20260506192546 | 51 | 313 | 3.0 | 3.0 | 0.00 | 0.00 | 0.06 | 77 | 1011.9 |
| 20260506192046 | 51 | 299 | 2.0 | 4.0 | 0.00 | 0.00 | 0.06 | 76 | 1011.9 |
| 20260506191547 | 51 | 332 | 0.0 | 4.0 | 0.00 | 0.00 | 0.06 | 76 | 1011.9 |
| 20260506191047 | 51 | 306 | 3.0 | 4.0 | 0.00 | 0.00 | 0.06 | 76 | 1011.9 |
| 20260506190546 | 51 | 313 | 3.0 | 5.0 | 0.00 | 0.00 | 0.06 | 75 | 1011.5 |
| 20260506190047 | 51 | 306 | 2.0 | 3.0 | 0.00 | 0.00 | 0.06 | 76 | 1011.5 |
| 20260506185546 | 51 | 311 | 2.0 | 3.0 | 0.00 | 0.00 | 0.06 | 76 | 1011.5 |
| 20260506185047 | 51 | 309 | 3.0 | 5.0 | 0.00 | 0.00 | 0.06 | 75 | 1011.5 |
| 20260506184547 | 52 | 335 | 2.0 | 7.0 | 0.00 | 0.00 | 0.06 | 76 | 1011.5 |
| 20260506184047 | 52 | 240 | 2.0 | 6.0 | 0.00 | 0.00 | 0.06 | 76 | 1011.5 |
| 20260506183546 | 52 | 292 | 3.0 | 3.0 | 0.00 | 0.00 | 0.06 | 76 | 1011.2 |
| 20260506183048 | 52 | 296 | 2.0 | 5.0 | 0.00 | 0.00 | 0.06 | 75 | 1011.5 |
| 20260506182546 | 52 | 353 | 3.0 | 5.0 | 0.00 | 0.00 | 0.06 | 75 | 1011.5 |
| 20260506182047 | 52 | 312 | 2.0 | 4.0 | 0.00 | 0.00 | 0.06 | 76 | 1011.2 |
| 20260506181546 | 52 | 305 | 2.0 | 4.0 | 0.00 | 0.00 | 0.06 | 76 | 1011.2 |
| 20260506181047 | 52 | 292 | 3.0 | 3.0 | 0.00 | 0.00 | 0.06 | 77 | 1011.2 |
| 20260506180546 | 52 | 293 | 3.0 | 5.0 | 0.00 | 0.00 | 0.06 | 76 | 1010.8 |
| 20260506180046 | 52 | 345 | 3.0 | 5.0 | 0.00 | 0.00 | 0.06 | 76 | 1011.2 |
| 20260506175547 | 52 | 305 | 2.0 | 3.0 | 0.00 | 0.00 | 0.06 | 77 | 1010.8 |
| 20260506175047 | 52 | 304 | 3.0 | 5.0 | 0.00 | 0.00 | 0.06 | 76 | 1010.8 |
| 20260506174548 | 52 | 302 | 3.0 | 3.0 | 0.00 | 0.00 | 0.06 | 76 | 1011.2 |
| 20260506174046 | 52 | 310 | 3.0 | 5.0 | 0.00 | 0.00 | 0.06 | 76 | 1010.8 |
| 20260506173550 | 51 | 359 | 3.0 | 5.0 | 0.00 | 0.00 | 0.06 | 76 | 1010.8 |
| 20260506173047 | 51 | 344 | 5.0 | 9.0 | 0.00 | 0.00 | 0.06 | 76 | 1010.8 |
| 20260506172547 | 51 | 295 | 3.0 | 5.0 | 0.00 | 0.00 | 0.06 | 77 | 1010.5 |
| 20260506172046 | 51 | 303 | 4.0 | 9.0 | 0.00 | 0.00 | 0.06 | 76 | 1010.5 |
| 20260506171546 | 51 | 305 | 2.0 | 5.0 | 0.00 | 0.00 | 0.06 | 78 | 1010.5 |
| 20260506171047 | 51 | 301 | 3.0 | 4.0 | 0.00 | 0.00 | 0.06 | 77 | 1010.5 |
| 20260506170548 | 51 | 337 | 3.0 | 4.0 | 0.00 | 0.00 | 0.06 | 77 | 1010.5 |
| 20260506170046 | 51 | 353 | 5.0 | 8.0 | 0.00 | 0.00 | 0.06 | 77 | 1010.5 |
| 20260506165547 | 51 | 325 | 3.0 | 4.0 | 0.00 | 0.00 | 0.06 | 78 | 1010.5 |
| 20260506165046 | 51 | 299 | 4.0 | 5.0 | 0.00 | 0.00 | 0.06 | 77 | 1010.2 |
| 20260506164546 | 52 | 284 | 2.0 | 7.0 | 0.00 | 0.00 | 0.06 | 76 | 1010.5 |
| 20260506164047 | 52 | 316 | 3.0 | 4.0 | 0.00 | 0.00 | 0.06 | 77 | 1010.2 |
| 20260506163546 | 52 | 287 | 3.0 | 8.0 | 0.00 | 0.00 | 0.06 | 76 | 1010.5 |
| 20260506163047 | 52 | 318 | 3.0 | 6.0 | 0.00 | 0.00 | 0.06 | 75 | 1010.2 |
| 20260506162546 | 52 | 314 | 4.0 | 5.0 | 0.00 | 0.00 | 0.06 | 75 | 1010.2 |
| 20260506162048 | 52 | 257 | 2.0 | 4.0 | 0.00 | 0.00 | 0.06 | 74 | 1010.2 |
| 20260506161546 | 52 | 59 | 3.0 | 6.0 | 0.00 | 0.00 | 0.06 | 73 | 1010.2 |
| 20260506161047 | 52 | 306 | 4.0 | 9.0 | 0.00 | 0.00 | 0.06 | 74 | 1010.2 |
| 20260506160546 | 53 | 304 | 4.0 | 5.0 | 0.00 | 0.00 | 0.06 | 72 | 1010.2 |
| 20260506160050 | 53 | 285 | 3.0 | 7.0 | 0.00 | 0.00 | 0.06 | 71 | 1010.2 |
| 20260506155547 | 53 | 319 | 3.0 | 4.0 | 0.00 | 0.00 | 0.06 | 70 | 1010.2 |
| 20260506155047 | 53 | 249 | 2.0 | 7.0 | 0.00 | 0.00 | 0.06 | 69 | 1010.5 |
| 20260506154547 | 53 | 293 | 1.0 | 7.0 | 0.00 | 0.00 | 0.06 | 70 | 1010.2 |
| 20260506154046 | 53 | 312 | 5.0 | 6.0 | 0.00 | 0.00 | 0.06 | 69 | 1010.2 |
| 20260506153547 | 54 | 232 | 2.0 | 5.0 | 0.00 | 0.00 | 0.06 | 68 | 1009.8 |
| 20260506153047 | 54 | 354 | 3.0 | 5.0 | 0.00 | 0.00 | 0.06 | 68 | 1009.8 |
| 20260506152547 | 54 | 294 | 4.0 | 6.0 | 0.00 | 0.00 | 0.06 | 67 | 1009.8 |
| 20260506152046 | 54 | 294 | 3.0 | 5.0 | 0.00 | 0.00 | 0.06 | 67 | 1009.8 |
| 20260506151547 | 54 | 288 | 3.0 | 4.0 | 0.00 | 0.00 | 0.06 | 68 | 1010.2 |
| 20260506151047 | 54 | 296 | 4.0 | 6.0 | 0.00 | 0.00 | 0.06 | 67 | 1010.2 |
| 20260506150547 | 54 | 273 | 2.0 | 4.0 | 0.00 | 0.00 | 0.06 | 70 | 1010.2 |
| 20260506150046 | 54 | 258 | 3.0 | 4.0 | 0.00 | 0.00 | 0.06 | 69 | 1009.8 |
| 20260506145547 | 54 | 333 | 3.0 | 4.0 | 0.00 | 0.00 | 0.06 | 69 | 1010.2 |
| 20260506145047 | 54 | 1 | 5.0 | 6.0 | 0.00 | 0.00 | 0.06 | 69 | 1009.8 |
| 20260506144549 | 54 | 32 | 9.0 | 10.0 | 0.00 | 0.00 | 0.06 | 66 | 1010.2 |
| 20260506144047 | 55 | 355 | 5.0 | 6.0 | 0.00 | 0.00 | 0.06 | 64 | 1009.8 |
| 20260506143547 | 55 | 311 | 3.0 | 9.0 | 0.00 | 0.00 | 0.06 | 64 | 1009.8 |
| 20260506143047 | 55 | 248 | 3.0 | 7.0 | 0.00 | 0.00 | 0.06 | 63 | 1009.8 |
| 20260506142546 | 55 | 268 | 3.0 | 4.0 | 0.00 | 0.00 | 0.06 | 62 | 1009.8 |
| 20260506142047 | 55 | 291 | 5.0 | 5.0 | 0.00 | 0.00 | 0.06 | 64 | 1009.8 |
| 20260506141546 | 55 | 281 | 6.0 | 6.0 | 0.00 | 0.00 | 0.06 | 63 | 1009.8 |
| 20260506141047 | 55 | 339 | 5.0 | 10.0 | 0.00 | 0.00 | 0.06 | 63 | 1009.8 |
| 20260506140547 | 55 | 339 | 2.0 | 5.0 | 0.00 | 0.00 | 0.06 | 63 | 1009.8 |
| 20260506140047 | 55 | 263 | 3.0 | 3.0 | 0.00 | 0.00 | 0.06 | 65 | 1009.8 |
| 20260506135547 | 54 | 313 | 4.0 | 6.0 | 0.00 | 0.00 | 0.06 | 63 | 1009.8 |
| 20260506135047 | 55 | 280 | 3.0 | 7.0 | 0.00 | 0.00 | 0.06 | 63 | 1009.8 |
| 20260506134547 | 55 | 296 | 6.0 | 8.0 | 0.00 | 0.00 | 0.06 | 63 | 1009.8 |
| 20260506134047 | 54 | 311 | 4.0 | 7.0 | 0.00 | 0.00 | 0.06 | 66 | 1009.8 |
| 20260506133547 | 54 | 78 | 3.0 | 5.0 | 0.00 | 0.00 | 0.06 | 65 | 1009.8 |
| 20260506133046 | 54 | 21 | 2.0 | 7.0 | 0.00 | 0.00 | 0.06 | 66 | 1009.8 |
| 20260506132546 | 54 | 316 | 5.0 | 6.0 | 0.00 | 0.00 | 0.06 | 66 | 1009.8 |
| 20260506132046 | 55 | 310 | 4.0 | 6.0 | 0.00 | 0.00 | 0.06 | 66 | 1009.8 |
| 20260506131548 | 55 | 316 | 5.0 | 5.0 | 0.00 | 0.00 | 0.06 | 66 | 1009.8 |
| 20260506131047 | 54 | 355 | 4.0 | 5.0 | 0.00 | 0.00 | 0.06 | 68 | 1009.8 |
| 20260506130547 | 54 | 282 | 4.0 | 7.0 | 0.00 | 0.00 | 0.06 | 65 | 1009.8 |
| 20260506130047 | 54 | 290 | 5.0 | 5.0 | 0.00 | 0.00 | 0.06 | 66 | 1009.8 |
| 20260506125547 | 54 | 302 | 3.0 | 7.0 | 0.00 | 0.00 | 0.06 | 66 | 1009.5 |
| 20260506125047 | 54 | 303 | 3.0 | 6.0 | 0.00 | 0.00 | 0.06 | 66 | 1009.5 |
| 20260506124546 | 54 | 305 | 6.0 | 8.0 | 0.00 | 0.00 | 0.06 | 65 | 1009.8 |
| 20260506124047 | 54 | 295 | 3.0 | 3.0 | 0.00 | 0.00 | 0.06 | 67 | 1009.8 |
| 20260506123546 | 54 | 311 | 2.0 | 5.0 | 0.00 | 0.00 | 0.06 | 67 | 1009.5 |
| 20260506123047 | 54 | 330 | 3.0 | 8.0 | 0.00 | 0.00 | 0.06 | 67 | 1009.5 |
| 20260506122547 | 54 | 38 | 2.0 | 9.0 | 0.00 | 0.00 | 0.06 | 66 | 1009.5 |
| 20260506122047 | 54 | 286 | 3.0 | 5.0 | 0.00 | 0.00 | 0.06 | 67 | 1009.5 |
| 20260506121546 | 55 | 331 | 2.0 | 7.0 | 0.00 | 0.00 | 0.06 | 65 | 1009.5 |
| 20260506121047 | 55 | 316 | 3.0 | 5.0 | 0.00 | 0.00 | 0.06 | 66 | 1009.5 |
| 20260506120547 | 55 | 284 | 4.0 | 7.0 | 0.00 | 0.00 | 0.06 | 66 | 1009.1 |
| 20260506120046 | 55 | 341 | 3.0 | 7.0 | 0.00 | 0.00 | 0.06 | 65 | 1009.1 |
| 20260506115546 | 55 | 309 | 6.0 | 7.0 | 0.00 | 0.00 | 0.06 | 64 | 1009.5 |
| 20260506115047 | 55 | 330 | 4.0 | 11.0 | 0.00 | 0.00 | 0.06 | 66 | 1009.1 |
| 20260506114547 | 54 | 255 | 2.0 | 4.0 | 0.00 | 0.00 | 0.06 | 67 | 1009.1 |
| 20260506114047 | 54 | 296 | 3.0 | 6.0 | 0.00 | 0.00 | 0.06 | 67 | 1009.1 |
| 20260506113547 | 54 | 268 | 6.0 | 8.0 | 0.00 | 0.00 | 0.06 | 66 | 1009.1 |
| 20260506113047 | 54 | 11 | 6.0 | 6.0 | 0.00 | 0.00 | 0.06 | 68 | 1009.1 |
| 20260506112546 | 54 | 304 | 4.0 | 9.0 | 0.00 | 0.00 | 0.06 | 69 | 1009.1 |
| 20260506112046 | 54 | 321 | 8.0 | 11.0 | 0.00 | 0.00 | 0.06 | 68 | 1009.1 |
| 20260506111547 | 54 | 318 | 5.0 | 5.0 | 0.00 | 0.00 | 0.06 | 69 | 1009.1 |
| 20260506111046 | 54 | 319 | 3.0 | 10.0 | 0.00 | 0.00 | 0.06 | 71 | 1009.1 |
| 20260506110547 | 53 | 319 | 3.0 | 11.0 | 0.00 | 0.00 | 0.06 | 68 | 1009.5 |
| 20260506110047 | 53 | 305 | 2.0 | 10.0 | 0.00 | 0.00 | 0.06 | 71 | 1009.1 |
| 20260506105546 | 53 | 275 | 2.0 | 5.0 | 0.00 | 0.00 | 0.06 | 74 | 1009.1 |
| 20260506105047 | 53 | 307 | 5.0 | 5.0 | 0.00 | 0.00 | 0.06 | 75 | 1009.1 |
| 20260506104546 | 52 | 10 | 3.0 | 5.0 | 0.00 | 0.00 | 0.06 | 78 | 1009.5 |
| 20260506104046 | 52 | 318 | 5.0 | 11.0 | 0.00 | 0.00 | 0.06 | 78 | 1009.5 |
| 20260506103549 | 53 | 308 | 7.0 | 9.0 | 0.00 | 0.00 | 0.06 | 79 | 1009.1 |
| 20260506103047 | 53 | 276 | 3.0 | 7.0 | 0.00 | 0.00 | 0.06 | 79 | 1009.1 |
| 20260506102547 | 53 | 34 | 2.0 | 9.0 | 0.00 | 0.00 | 0.06 | 80 | 1009.1 |
| 20260506102047 | 53 | 304 | 4.0 | 6.0 | 0.00 | 0.00 | 0.06 | 79 | 1009.1 |
| 20260506101550 | 53 | 303 | 6.0 | 8.0 | 0.00 | 0.00 | 0.06 | 79 | 1009.1 |
| 20260506101047 | 53 | 0 | 3.0 | 8.0 | 0.00 | 0.00 | 0.06 | 79 | 1009.1 |
| 20260506100546 | 53 | 307 | 4.0 | 7.0 | 0.00 | 0.00 | 0.06 | 80 | 1009.1 |
| 20260506100047 | 53 | 280 | 4.0 | 7.0 | 0.00 | 0.00 | 0.06 | 79 | 1009.1 |
| 20260506095546 | 53 | 358 | 3.0 | 6.0 | 0.00 | 0.00 | 0.06 | 79 | 1008.8 |
| 20260506095046 | 53 | 352 | 4.0 | 6.0 | 0.00 | 0.00 | 0.06 | 79 | 1008.8 |
| 20260506094547 | 53 | 288 | 3.0 | 9.0 | 0.00 | 0.00 | 0.06 | 79 | 1008.8 |
| 20260506094047 | 53 | 330 | 4.0 | 6.0 | 0.00 | 0.00 | 0.06 | 79 | 1008.8 |
| 20260506093546 | 53 | 10 | 4.0 | 5.0 | 0.00 | 0.00 | 0.06 | 79 | 1008.5 |
| 20260506093047 | 53 | 277 | 2.0 | 4.0 | 0.00 | 0.00 | 0.06 | 79 | 1008.8 |
| 20260506092546 | 53 | 301 | 4.0 | 9.0 | 0.00 | 0.00 | 0.06 | 79 | 1008.5 |
| 20260506092046 | 54 | 297 | 5.0 | 8.0 | 0.00 | 0.00 | 0.06 | 80 | 1008.5 |
| 20260506091549 | 53 | 291 | 4.0 | 5.0 | 0.00 | 0.00 | 0.06 | 80 | 1008.5 |
| 20260506091047 | 53 | 37 | 3.0 | 6.0 | 0.00 | 0.00 | 0.06 | 80 | 1008.5 |
| 20260506090546 | 53 | 319 | 4.0 | 8.0 | 0.00 | 0.00 | 0.06 | 80 | 1008.5 |
| 20260506090046 | 53 | 264 | 3.0 | 6.0 | 0.00 | 0.00 | 0.06 | 81 | 1008.5 |
| 20260506085546 | 53 | 291 | 5.0 | 8.0 | 0.00 | 0.00 | 0.06 | 82 | 1008.5 |
| 20260506085047 | 53 | 289 | 4.0 | 6.0 | 0.00 | 0.00 | 0.06 | 84 | 1008.5 |
| 20260506084546 | 52 | 303 | 3.0 | 8.0 | 0.00 | 0.00 | 0.06 | 84 | 1008.5 |
| 20260506084046 | 52 | 313 | 0.0 | 5.0 | 0.00 | 0.00 | 0.06 | 84 | 1008.5 |
| 20260506083546 | 52 | 340 | 3.0 | 10.0 | 0.00 | 0.00 | 0.06 | 84 | 1008.5 |
| 20260506083046 | 52 | 285 | 2.0 | 7.0 | 0.00 | 0.00 | 0.06 | 85 | 1008.5 |
| 20260506082547 | 52 | 305 | 2.0 | 5.0 | 0.00 | 0.00 | 0.06 | 86 | 1008.5 |
| 20260506082047 | 51 | 303 | 3.0 | 4.0 | 0.00 | 0.00 | 0.06 | 86 | 1008.1 |
| 20260506081547 | 51 | 297 | 4.0 | 5.0 | 0.00 | 0.00 | 0.06 | 87 | 1008.1 |
| 20260506081046 | 51 | 314 | 3.0 | 5.0 | 0.00 | 0.00 | 0.06 | 87 | 1008.1 |
| 20260506080546 | 51 | 302 | 3.0 | 8.0 | 0.00 | 0.00 | 0.06 | 87 | 1008.5 |
| 20260506073046 | 50 | 281 | 3.0 | 4.0 | 0.00 | 0.00 | 0.06 | 90 | 1008.1 |
| 20260506072547 | 50 | 300 | 5.0 | 6.0 | 0.00 | 0.00 | 0.06 | 91 | 1008.1 |
| 20260506072048 | 50 | 327 | 3.0 | 4.0 | 0.00 | 0.00 | 0.06 | 92 | 1008.1 |
| 20260506071547 | 50 | 293 | 3.0 | 6.0 | 0.00 | 0.00 | 0.06 | 92 | 1008.1 |
| 20260506071046 | 50 | 273 | 3.0 | 7.0 | 0.00 | 0.00 | 0.06 | 91 | 1008.5 |
| 20260506070547 | 50 | 287 | 3.0 | 4.0 | 0.00 | 0.00 | 0.06 | 92 | 1008.1 |
| 20260506062047 | 49 | 302 | 3.0 | 8.0 | 0.02 | 0.00 | 0.05 | 93 | 1007.8 |
| 20260506061546 | 49 | 313 | 3.0 | 4.0 | 0.02 | 0.00 | 0.05 | 93 | 1008.1 |
| 20260506061046 | 49 | 296 | 7.0 | 7.0 | 0.00 | 0.00 | 0.05 | 93 | 1008.1 |